QPF
0.02 0.01 0.01 0.01 0.01 0.01 0.01 0.01 0.02 0.01 0.01 0.01 0.01 0.01 0.01 0.02 0.01 0.00 0.00 0.00 0.00 0.00 0.00 0.00 0.01 0.01 0.01 0.01 0.01 0.03 0.05 0.06 0.05 0.04 0.03 0.03 0.03 0.02
0.01 0.01 0.01 0.01 0.01 0.01 0.01 0.01 0.01 0.01 0.01 0.01 0.01 0.02 0.03 0.03 0.03 0.01 0.00 0.00 0.01 0.00 0.00 0.00 0.00 0.01 0.01 0.01 0.01 0.02 0.03 0.04 0.05 0.04 0.03 0.03 0.03 0.03
0.01 0.01 0.01 0.01 0.01 0.01 0.01 0.01 0.01 0.01 0.02 0.01 0.02 0.02 0.03 0.04 0.04 0.03 0.02 0.01 0.01 0.01 0.00 0.00 0.00 0.00 0.00 0.01 0.02 0.02 0.04 0.05 0.04 0.04 0.03 0.03 0.02 0.02
0.02 0.01 0.01 0.01 0.01 0.01 0.02 0.02 0.02 0.02 0.02 0.02 0.01 0.02 0.02 0.03 0.03 0.03 0.03 0.02 0.01 0.01 0.01 0.00 0.00 0.00 0.01 0.01 0.01 0.01 0.03 0.05 0.05 0.04 0.03 0.02 0.02 0.02
0.03 0.03 0.02 0.01 0.01 0.01 0.01 0.01 0.01 0.01 0.01 0.01 0.01 0.02 0.03 0.03 0.04 0.03 0.03 0.02 0.02 0.01 0.01 0.01 0.00 0.00 0.00 0.00 0.00 0.01 0.01 0.02 0.05 0.05 0.04 0.03 0.02 0.02
0.03 0.03 0.02 0.02 0.01 0.01 0.01 0.01 0.02 0.02 0.02 0.02 0.01 0.01 0.02 0.03 0.03 0.04 0.04 0.03 0.02 0.02 0.02 0.01 0.01 0.01 0.01 0.01 0.00 0.01 0.01 0.01 0.03 0.05 0.05 0.05 0.04 0.03
0.03 0.03 0.03 0.02 0.02 0.02 0.02 0.02 0.03 0.03 0.02 0.02 0.02 0.01 0.02 0.03 0.03 0.04 0.04 0.03 0.03 0.03 0.03 0.02 0.01 0.01 0.01 0.01 0.01 0.01 0.01 0.01 0.02 0.03 0.05 0.05 0.05 0.04
0.02 0.02 0.03 0.02 0.02 0.02 0.02 0.02 0.02 0.02 0.03 0.03 0.02 0.01 0.01 0.02 0.03 0.04 0.05 0.04 0.03 0.02 0.03 0.03 0.02 0.02 0.01 0.01 0.01 0.01 0.01 0.01 0.01 0.02 0.04 0.05 0.06 0.05
0.02 0.01 0.02 0.01 0.01 0.01 0.01 0.01 0.01 0.01 0.02 0.02 0.02 0.01 0.01 0.02 0.03 0.04 0.05 0.05 0.04 0.02 0.03 0.03 0.03 0.02 0.01 0.02 0.02 0.01 0.01 0.01 0.01 0.02 0.03 0.04 0.05 0.06
0.02 0.01 0.01 0.01 0.01 0.01 0.01 0.01 0.01 0.00 0.01 0.01 0.01 0.01 0.01 0.02 0.03 0.04 0.05 0.04 0.04 0.03 0.03 0.04 0.04 0.03 0.02 0.02 0.02 0.01 0.01 0.01 0.02 0.02 0.03 0.04 0.04 0.05
0.01 0.01 0.01 0.01 0.01 0.01 0.01 0.01 0.01 0.00 0.00 0.00 0.01 0.01 0.01 0.01 0.02 0.03 0.03 0.03 0.03 0.03 0.03 0.02 0.03 0.03 0.03 0.03 0.02 0.02 0.02 0.02 0.02 0.03 0.03 0.03 0.03 0.04
0.01 0.01 0.01 0.01 0.01 0.02 0.02 0.02 0.01 0.01 0.00 0.00 0.00 0.00 0.00 0.01 0.01 0.02 0.03 0.03 0.03 0.03 0.03 0.02 0.02 0.02 0.03 0.03 0.03 0.03 0.03 0.03 0.03 0.03 0.03 0.03 0.03 0.03
0.02 0.02 0.01 0.01 0.01 0.01 0.01 0.01 0.01 0.01 0.01 0.01 0.01 0.00 0.00 0.00 0.01 0.01 0.02 0.03 0.03 0.02 0.02 0.02 0.02 0.02 0.02 0.02 0.02 0.03 0.03 0.04 0.04 0.03 0.03 0.03 0.03 0.03
0.03 0.02 0.02 0.02 0.02 0.01 0.01 0.02 0.02 0.02 0.02 0.02 0.02 0.01 0.01 0.01 0.01 0.01 0.01 0.02 0.02 0.02 0.01 0.02 0.02 0.02 0.03 0.03 0.03 0.03 0.04 0.04 0.04 0.03 0.03 0.03 0.03 0.04
0.05 0.04 0.03 0.03 0.02 0.02 0.02 0.02 0.02 0.03 0.03 0.03 0.03 0.03 0.02 0.02 0.01 0.02 0.02 0.02 0.02 0.03 0.02 0.02 0.02 0.02 0.03 0.03 0.03 0.03 0.03 0.03 0.03 0.03 0.03 0.03 0.03 0.03
0.06 0.06 0.06 0.05 0.04 0.03 0.02 0.02 0.02 0.02 0.03 0.03 0.03 0.03 0.03 0.03 0.02 0.02 0.02 0.02 0.02 0.03 0.02 0.02 0.02 0.03 0.03 0.03 0.03 0.03 0.03 0.03 0.03 0.03 0.04 0.03 0.03 0.03
0.05 0.05 0.05 0.05 0.04 0.03 0.03 0.03 0.03 0.03 0.03 0.03 0.04 0.03 0.03 0.03 0.03 0.02 0.02 0.02 0.02 0.02 0.02 0.03 0.03 0.03 0.03 0.03 0.03 0.03 0.03 0.03 0.03 0.04 0.05 0.05 0.04 0.04
0.04 0.04 0.03 0.03 0.03 0.03 0.03 0.03 0.03 0.03 0.03 0.03 0.04 0.04 0.03 0.03 0.03 0.03 0.03 0.03 0.03 0.02 0.02 0.02 0.03 0.03 0.04 0.04 0.03 0.02 0.03 0.03 0.04 0.04 0.05 0.06 0.05 0.05
0.03 0.03 0.02 0.02 0.02 0.02 0.02 0.02 0.02 0.02 0.03 0.03 0.03 0.03 0.03 0.03 0.03 0.03 0.03 0.03 0.03 0.02 0.02 0.02 0.03 0.04 0.04 0.03 0.02 0.02 0.03 0.03 0.04 0.04 0.05 0.06 0.06 0.06
0.02 0.02 0.01 0.01 0.01 0.02 0.02 0.02 0.02 0.02 0.02 0.02 0.02 0.02 0.02 0.02 0.02 0.02 0.02 0.02 0.03 0.03 0.03 0.02 0.02 0.03 0.04 0.03 0.02 0.02 0.02 0.03 0.04 0.04 0.05 0.05 0.05 0.05
0.01 0.01 0.01 0.01 0.01 0.01 0.01 0.01 0.01 0.02 0.02 0.02 0.02 0.02 0.02 0.02 0.02 0.02 0.02 0.02 0.02 0.03 0.03 0.02 0.02 0.02 0.02 0.03 0.03 0.02 0.02 0.03 0.04 0.05 0.05 0.05 0.05 0.04
0.01 0.01 0.01 0.01 0.02 0.02 0.02 0.02 0.02 0.02 0.02 0.02 0.02 0.02 0.02 0.02 0.02 0.02 0.02 0.02 0.02 0.02 0.02 0.02 0.02 0.02 0.02 0.03 0.03 0.02 0.02 0.03 0.03 0.04 0.04 0.05 0.06 0.06
0.01 0.01 0.01 0.01 0.02 0.02 0.02 0.02 0.02 0.02 0.02 0.02 0.02 0.02 0.02 0.02 0.02 0.02 0.02 0.02 0.02 0.02 0.02 0.02 0.03 0.03 0.03 0.03 0.03 0.02 0.02 0.03 0.03 0.04 0.04 0.04 0.04 0.04
MSLP
1028.28 1028.37 1028.39 1028.37 1028.31 1028.25 1028.23 1028.26 1028.37 1028.57 1028.86 1029.20 1029.58 1029.97 1030.33 1030.66 1030.92 1031.13 1031.28 1031.39 1031.45 1031.49 1031.49 1031.47 1031.43 1031.37 1031.30 1031.20 1031.10 1030.98 1030.87 1030.76 1030.65 1030.53 1030.42 1030.29 1030.15 1030.00
1028.33 1028.45 1028.50 1028.49 1028.43 1028.35 1028.29 1028.27 1028.33 1028.46 1028.67 1028.95 1029.28 1029.62 1029.96 1030.28 1030.55 1030.77 1030.95 1031.09 1031.18 1031.25 1031.29 1031.30 1031.29 1031.26 1031.22 1031.15 1031.08 1031.01 1030.93 1030.85 1030.77 1030.68 1030.58 1030.46 1030.32 1030.15
1028.25 1028.42 1028.52 1028.54 1028.51 1028.45 1028.39 1028.35 1028.37 1028.46 1028.62 1028.84 1029.11 1029.40 1029.69 1029.97 1030.21 1030.42 1030.59 1030.72 1030.81 1030.88 1030.93 1030.95 1030.95 1030.94 1030.92 1030.89 1030.86 1030.83 1030.80 1030.78 1030.74 1030.69 1030.63 1030.53 1030.40 1030.24
1028.06 1028.28 1028.43 1028.52 1028.54 1028.51 1028.48 1028.46 1028.47 1028.54 1028.66 1028.84 1029.05 1029.28 1029.52 1029.73 1029.93 1030.09 1030.22 1030.31 1030.37 1030.41 1030.43 1030.44 1030.43 1030.42 1030.41 1030.41 1030.42 1030.44 1030.46 1030.49 1030.52 1030.53 1030.51 1030.45 1030.35 1030.21
1027.81 1028.07 1028.27 1028.41 1028.49 1028.52 1028.53 1028.53 1028.56 1028.63 1028.73 1028.87 1029.04 1029.22 1029.39 1029.54 1029.67 1029.77 1029.83 1029.87 1029.88 1029.87 1029.84 1029.81 1029.77 1029.74 1029.73 1029.74 1029.77 1029.83 1029.91 1029.99 1030.08 1030.15 1030.20 1030.20 1030.15 1030.05
1027.55 1027.84 1028.08 1028.26 1028.38 1028.46 1028.51 1028.55 1028.60 1028.66 1028.76 1028.87 1029.00 1029.12 1029.24 1029.33 1029.39 1029.42 1029.42 1029.39 1029.33 1029.26 1029.18 1029.10 1029.02 1028.96 1028.93 1028.93 1028.97 1029.06 1029.17 1029.31 1029.45 1029.58 1029.68 1029.75 1029.76 1029.72
1027.36 1027.65 1027.90 1028.09 1028.23 1028.33 1028.40 1028.46 1028.52 1028.59 1028.67 1028.76 1028.84 1028.92 1028.98 1029.02 1029.02 1029.00 1028.94 1028.85 1028.74 1028.62 1028.49 1028.36 1028.24 1028.14 1028.08 1028.07 1028.10 1028.19 1028.32 1028.48 1028.66 1028.84 1029.00 1029.12 1029.19 1029.22
1027.28 1027.54 1027.75 1027.93 1028.05 1028.15 1028.21 1028.27 1028.32 1028.37 1028.43 1028.48 1028.53 1028.57 1028.59 1028.58 1028.54 1028.47 1028.38 1028.26 1028.11 1027.96 1027.79 1027.63 1027.47 1027.35 1027.26 1027.22 1027.23 1027.30 1027.43 1027.60 1027.79 1027.99 1028.19 1028.35 1028.48 1028.56
1027.31 1027.51 1027.68 1027.80 1027.88 1027.94 1027.97 1027.99 1028.01 1028.03 1028.05 1028.07 1028.07 1028.07 1028.04 1028.00 1027.93 1027.84 1027.73 1027.60 1027.45 1027.29 1027.11 1026.94 1026.77 1026.62 1026.50 1026.43 1026.42 1026.47 1026.57 1026.72 1026.91 1027.11 1027.31 1027.50 1027.65 1027.78
1027.46 1027.58 1027.67 1027.73 1027.75 1027.75 1027.73 1027.70 1027.67 1027.64 1027.60 1027.57 1027.52 1027.47 1027.41 1027.33 1027.25 1027.15 1027.04 1026.92 1026.78 1026.63 1026.46 1026.29 1026.12 1025.96 1025.83 1025.74 1025.69 1025.71 1025.78 1025.90 1026.06 1026.24 1026.43 1026.61 1026.78 1026.92
1027.69 1027.74 1027.75 1027.73 1027.69 1027.63 1027.55 1027.47 1027.38 1027.29 1027.19 1027.09 1026.99 1026.88 1026.77 1026.66 1026.56 1026.45 1026.34 1026.23 1026.11 1025.98 1025.83 1025.68 1025.52 1025.36 1025.22 1025.10 1025.04 1025.02 1025.05 1025.13 1025.25 1025.40 1025.56 1025.73 1025.88 1026.03
1027.97 1027.95 1027.90 1027.83 1027.74 1027.63 1027.50 1027.37 1027.23 1027.08 1026.92 1026.75 1026.58 1026.41 1026.24 1026.08 1025.94 1025.81 1025.69 1025.57 1025.46 1025.34 1025.21 1025.06 1024.91 1024.75 1024.60 1024.47 1024.38 1024.34 1024.34 1024.38 1024.47 1024.59 1024.72 1024.85 1024.99 1025.12
1028.29 1028.22 1028.13 1028.03 1027.90 1027.77 1027.62 1027.45 1027.27 1027.07 1026.85 1026.62 1026.37 1026.12 1025.88 1025.66 1025.45 1025.27 1025.12 1024.97 1024.84 1024.71 1024.57 1024.41 1024.25 1024.08 1023.92 1023.78 1023.67 1023.60 1023.58 1023.60 1023.66 1023.75 1023.86 1023.97 1024.09 1024.20
1028.62 1028.53 1028.42 1028.31 1028.19 1028.05 1027.90 1027.72 1027.51 1027.27 1027.00 1026.70 1026.38 1026.05 1025.73 1025.42 1025.13 1024.88 1024.65 1024.45 1024.26 1024.08 1023.90 1023.71 1023.51 1023.32 1023.13 1022.97 1022.84 1022.75 1022.71 1022.72 1022.77 1022.84 1022.94 1023.05 1023.15 1023.26
1028.94 1028.84 1028.74 1028.64 1028.54 1028.42 1028.28 1028.11 1027.89 1027.63 1027.31 1026.96 1026.57 1026.16 1025.75 1025.34 1024.97 1024.62 1024.30 1024.00 1023.73 1023.47 1023.21 1022.96 1022.70 1022.46 1022.23 1022.03 1021.87 1021.76 1021.71 1021.71 1021.75 1021.83 1021.93 1022.05 1022.16 1022.27
1029.23 1029.13 1029.05 1028.97 1028.89 1028.80 1028.68 1028.52 1028.31 1028.03 1027.69 1027.29 1026.84 1026.36 1025.87 1025.38 1024.91 1024.46 1024.04 1023.64 1023.27 1022.91 1022.55 1022.20 1021.86 1021.54 1021.25 1020.99 1020.79 1020.66 1020.58 1020.57 1020.62 1020.70 1020.82 1020.95 1021.09 1021.22
1029.45 1029.35 1029.28 1029.22 1029.16 1029.09 1028.99 1028.84 1028.63 1028.35 1028.00 1027.57 1027.09 1026.57 1026.02 1025.46 1024.92 1024.38 1023.87 1023.37 1022.89 1022.42 1021.96 1021.50 1021.06 1020.65 1020.27 1019.94 1019.69 1019.50 1019.40 1019.37 1019.40 1019.49 1019.62 1019.77 1019.93 1020.09
1029.56 1029.45 1029.37 1029.31 1029.26 1029.19 1029.10 1028.96 1028.76 1028.48 1028.12 1027.69 1027.20 1026.67 1026.10 1025.51 1024.92 1024.34 1023.76 1023.19 1022.63 1022.06 1021.50 1020.94 1020.39 1019.88 1019.40 1018.99 1018.65 1018.40 1018.24 1018.17 1018.18 1018.25 1018.38 1018.54 1018.72 1018.90
1029.53 1029.40 1029.29 1029.21 1029.15 1029.07 1028.97 1028.83 1028.62 1028.35 1028.01 1027.59 1027.12 1026.60 1026.05 1025.48 1024.90 1024.30 1023.71 1023.10 1022.48 1021.85 1021.20 1020.56 1019.92 1019.30 1018.73 1018.22 1017.79 1017.46 1017.22 1017.08 1017.04 1017.07 1017.17 1017.31 1017.49 1017.69
1029.36 1029.19 1029.05 1028.93 1028.83 1028.72 1028.60 1028.44 1028.24 1027.97 1027.65 1027.27 1026.84 1026.37 1025.87 1025.34 1024.80 1024.24 1023.66 1023.06 1022.43 1021.76 1021.07 1020.36 1019.65 1018.95 1018.29 1017.68 1017.16 1016.73 1016.40 1016.18 1016.05 1016.02 1016.06 1016.16 1016.31 1016.49
1029.06 1028.84 1028.65 1028.49 1028.34 1028.20 1028.05 1027.87 1027.65 1027.40 1027.10 1026.75 1026.38 1025.97 1025.54 1025.09 1024.62 1024.12 1023.59 1023.02 1022.41 1021.75 1021.04 1020.30 1019.54 1018.79 1018.05 1017.37 1016.75 1016.23 1015.81 1015.49 1015.27 1015.15 1015.10 1015.14 1015.23 1015.36
1028.66 1028.40 1028.17 1027.96 1027.77 1027.59 1027.40 1027.19 1026.96 1026.70 1026.42 1026.11 1025.78 1025.43 1025.07 1024.70 1024.30 1023.88 1023.42 1022.91 1022.34 1021.71 1021.02 1020.28 1019.50 1018.72 1017.94 1017.20 1016.52 1015.91 1015.40 1014.99 1014.68 1014.46 1014.33 1014.27 1014.28 1014.35
1028.22 1027.93 1027.66 1027.42 1027.19 1026.96 1026.72 1026.48 1026.22 1025.95 1025.67 1025.37 1025.07 1024.77 1024.46 1024.14 1023.81 1023.45 1023.05 1022.60 1022.08 1021.50 1020.85 1020.13 1019.38 1018.60 1017.81 1017.05 1016.33 1015.68 1015.11 1014.63 1014.24 1013.93 1013.71 1013.57 1013.49 1013.47
Thickness
5463 5465 5467 5468 5469 5471 5473 5475 5479 5485 5491 5492 5491 5491 5490 5490 5491 5492 5494 5495 5496 5497 5498 5500 5501 5502 5504 5505 5507 5509 5510 5512 5513 5515 5516 5518 5519 5521
5451 5453 5455 5456 5457 5458 5460 5462 5465 5469 5475 5479 5478 5478 5477 5478 5478 5480 5482 5483 5484 5485 5486 5488 5489 5491 5492 5493 5495 5496 5498 5499 5501 5502 5504 5506 5507 5508
5440 5442 5443 5444 5445 5446 5447 5449 5451 5454 5459 5464 5463 5463 5464 5465 5467 5468 5470 5471 5473 5473 5474 5476 5477 5479 5480 5481 5482 5484 5485 5486 5488 5489 5491 5492 5493 5495
5429 5430 5431 5432 5433 5434 5435 5436 5439 5441 5443 5448 5450 5450 5451 5452 5454 5455 5458 5459 5460 5461 5462 5463 5464 5466 5467 5468 5469 5471 5472 5473 5474 5476 5478 5479 5481 5481
5417 5418 5419 5420 5421 5422 5423 5424 5426 5427 5429 5433 5436 5437 5438 5438 5440 5443 5445 5447 5448 5450 5450 5451 5452 5453 5454 5455 5456 5457 5458 5460 5461 5462 5462 5464 5466 5467
5404 5406 5406 5407 5409 5410 5410 5411 5412 5414 5416 5418 5422 5424 5425 5426 5427 5430 5433 5435 5436 5437 5438 5438 5439 5439 5440 5442 5443 5444 5444 5445 5446 5447 5448 5450 5451 5453
5392 5393 5393 5394 5395 5395 5397 5399 5399 5400 5403 5406 5408 5410 5412 5412 5414 5416 5418 5421 5424 5424 5426 5427 5426 5427 5428 5428 5429 5429 5430 5431 5432 5433 5434 5436 5437 5439
5380 5380 5380 5380 5381 5381 5382 5383 5384 5386 5390 5392 5395 5396 5399 5400 5400 5401 5402 5405 5410 5412 5410 5413 5412 5414 5415 5415 5415 5415 5415 5417 5418 5419 5420 5422 5423 5425
5367 5367 5367 5368 5368 5368 5369 5369 5370 5371 5374 5376 5379 5382 5383 5384 5385 5386 5387 5389 5393 5394 5393 5398 5399 5400 5401 5402 5401 5401 5401 5402 5403 5405 5406 5408 5409 5411
5352 5353 5352 5353 5354 5354 5355 5356 5357 5359 5361 5362 5365 5367 5366 5367 5368 5370 5371 5373 5376 5376 5377 5382 5386 5386 5388 5389 5389 5388 5388 5388 5390 5391 5393 5394 5396 5398
5339 5339 5339 5340 5340 5340 5341 5343 5344 5345 5345 5347 5349 5350 5351 5351 5352 5353 5355 5357 5362 5364 5363 5365 5369 5370 5373 5375 5376 5375 5374 5374 5376 5378 5379 5381 5382 5384
5327 5327 5327 5327 5327 5327 5327 5329 5331 5333 5333 5334 5334 5336 5337 5338 5337 5338 5340 5342 5345 5349 5351 5350 5352 5351 5357 5362 5361 5361 5360 5361 5363 5365 5366 5368 5369 5370
5316 5317 5317 5316 5315 5314 5314 5316 5318 5318 5318 5320 5321 5323 5324 5325 5325 5326 5326 5327 5330 5334 5335 5334 5336 5336 5337 5344 5347 5346 5347 5348 5350 5352 5353 5355 5356 5357
5305 5304 5304 5303 5303 5302 5302 5302 5302 5303 5304 5306 5308 5310 5311 5312 5313 5313 5313 5314 5316 5318 5319 5318 5320 5322 5323 5327 5331 5334 5334 5335 5336 5339 5341 5342 5343 5345
5293 5292 5291 5291 5290 5290 5289 5289 5288 5289 5290 5292 5294 5295 5296 5298 5298 5298 5299 5301 5303 5304 5305 5305 5306 5308 5309 5313 5316 5319 5320 5323 5323 5325 5326 5328 5330 5332
5279 5279 5279 5278 5277 5277 5276 5276 5275 5276 5277 5278 5279 5280 5280 5282 5284 5285 5287 5289 5291 5293 5292 5292 5292 5294 5297 5300 5302 5304 5306 5307 5310 5311 5313 5315 5317 5320
5266 5266 5265 5265 5265 5264 5263 5263 5262 5262 5262 5263 5264 5265 5267 5268 5270 5271 5272 5274 5276 5280 5282 5281 5280 5281 5283 5285 5288 5291 5292 5294 5296 5297 5299 5303 5306 5308
5253 5253 5253 5251 5251 5250 5250 5249 5249 5249 5249 5249 5250 5251 5253 5255 5256 5257 5259 5260 5263 5265 5267 5268 5268 5269 5271 5274 5275 5277 5280 5282 5284 5285 5286 5290 5295 5297
5241 5240 5239 5238 5237 5236 5236 5235 5235 5235 5234 5235 5236 5238 5239 5241 5243 5245 5246 5247 5249 5251 5253 5254 5255 5256 5259 5264 5268 5265 5266 5269 5270 5273 5275 5277 5282 5286
5228 5227 5226 5225 5224 5224 5223 5222 5222 5222 5222 5222 5224 5225 5227 5228 5230 5231 5233 5234 5235 5237 5239 5241 5242 5243 5246 5249 5253 5254 5252 5254 5257 5260 5263 5265 5269 5272
5216 5215 5214 5213 5212 5211 5210 5210 5209 5209 5210 5210 5211 5212 5214 5215 5217 5218 5219 5221 5222 5224 5227 5229 5230 5230 5231 5233 5237 5242 5242 5242 5243 5245 5249 5252 5256 5260
5205 5204 5203 5202 5201 5200 5199 5198 5198 5198 5199 5199 5200 5201 5202 5203 5205 5206 5208 5209 5211 5212 5215 5216 5216 5217 5219 5221 5225 5228 5230 5231 5232 5234 5236 5238 5240 5247
5195 5194 5193 5192 5191 5190 5189 5189 5188 5189 5189 5189 5190 5191 5192 5192 5194 5195 5196 5197 5199 5200 5201 5203 5204 5205 5207 5209 5212 5215 5217 5219 5221 5225 5227 5228 5230 5233